User: anonymous
Location: Oshawa
(43.9000°N, 78.8670°W)
Time: 01:16:19
(UTC-04:00)
Language:

Iridium 46 - Orbit

View from above orbital plane
View from above orbital plane
View from above satellite
View from above satellite

Ground track
Ground track

The orbit data is extracted from the following two-line orbital elements,

1 24905U 97043C   14205.41644870  .00000170  00000-0  53766-4 0  9303
2 24905 086.4001 338.4615 0002218 111.5319 248.6114 14.34216160886078
Epoch (UTC): 24 July 2014 09:59:41
Eccentricity: 0.0002218
inclination: 86.4001°
perigee height: 776 km
apogee height: 779 km
right ascension of ascending node: 338.4615°
argument of perigee: 111.5319°
revolutions per day: 14.34216160
mean anomaly at epoch: 248.6114°
orbit number at epoch: 88607

The dashed part of the orbit path shows where the satellite is in the earth's shadow,  

DLR